EHI
0 0 0 0 0 0 0 0 0 1 1 4 9 10 7 4 1 0 0 1 1 1 0 0 0 0 0 0 0 0 0 0 0 0 0 0 0 0 0 0 0 0 0 0
0 0 0 0 0 0 0 0 1 2 2 5 9 9 6 3 1 0 0 0 0 0 0 0 0 0 0 0 0 0 0 0 0 0 0 0 0 0 0 0 0 0 0 0
0 0 0 0 0 0 0 0 1 2 3 4 6 6 4 2 1 0 0 0 0 0 0 0 0 0 0 0 0 0 0 0 0 0 0 0 0 0 0 0 0 0 0 0
0 0 0 0 0 0 0 0 0 1 1 2 2 2 1 1 0 0 0 0 0 0 0 0 0 0 0 0 0 0 0 0 0 0 0 0 0 0 0 0 0 0 0 0
0 0 0 0 0 0 0 0 0 0 0 0 0 0 0 0 0 0 0 0 0 0 0 0 0 0 0 0 0 0 0 0 0 0 0 0 0 0 0 0 0 0 0 0
0 0 0 0 0 0 0 0 0 0 0 0 0 0 0 0 0 0 0 0 0 0 0 0 0 0 0 0 0 0 0 0 0 0 0 0 0 0 0 0 0 0 0 0
0 0 0 0 0 0 0 0 0 0 0 0 0 0 0 0 0 0 0 0 0 0 0 0 0 0 0 0 0 0 0 0 0 0 0 0 0 0 0 0 0 0 0 0
0 0 0 0 0 0 0 0 0 0 0 0 0 0 0 0 0 0 0 0 0 0 0 0 0 0 0 0 0 0 0 0 0 0 0 0 0 0 0 0 0 0 0 0
0 0 0 0 0 0 0 0 0 0 0 0 0 0 0 0 0 0 0 0 0 0 0 0 0 0 0 0 0 0 0 0 0 0 0 0 0 0 0 0 0 0 0 0
0 0 0 0 0 0 0 0 0 0 0 0 0 0 0 0 0 0 0 0 0 0 0 0 0 0 0 0 0 0 0 0 0 0 0 0 0 0 0 0 0 0 0 0
0 0 0 0 0 0 0 0 0 0 0 0 0 0 0 0 0 0 0 0 0 0 0 0 0 0 0 0 0 0 0 0 0 0 0 0 0 0 0 0 0 0 0 0
0 0 0 0 0 0 0 0 0 0 0 0 0 0 0 0 0 0 0 0 0 0 0 0 0 0 0 0 0 0 0 0 0 0 0 0 0 0 0 0 0 0 0 0
0 0 0 0 0 0 0 0 0 0 0 0 0 0 0 0 0 0 0 0 0 0 0 0 0 0 0 0 0 0 0 0 0 0 0 0 0 0 0 0 0 0 0 0
0 0 0 0 0 0 0 0 0 0 0 0 0 0 0 0 0 0 0 0 0 0 0 0 0 0 0 0 0 0 0 0 0 0 0 0 0 0 0 0 0 0 0 0
0 0 0 0 0 0 0 0 0 0 0 0 0 0 0 0 0 0 0 0 0 0 0 0 0 0 0 0 0 0 0 0 0 0 0 0 0 0 0 0 0 0 0 0
0 0 0 0 0 0 0 0 0 0 0 0 0 0 0 0 0 0 0 0 0 0 0 0 0 0 0 0 0 0 0 0 0 0 0 0 0 0 0 0 0 0 0 0
0 0 0 0 0 0 0 0 0 0 0 0 0 0 0 0 0 0 0 0 0 0 0 0 0 0 0 0 0 0 0 0 0 0 0 0 0 0 0 0 0 0 0 0
0 0 0 0 0 0 0 0 0 0 0 0 0 0 0 0 0 0 0 0 0 0 0 0 0 0 0 0 0 0 0 0 0 0 0 0 0 0 0 0 0 0 0 0
0 0 0 0 0 0 0 0 0 0 0 0 0 0 0 0 0 0 0 0 0 0 0 0 0 0 0 0 0 0 0 0 0 0 0 0 0 0 0 0 0 0 0 0
0 0 0 0 0 0 0 0 0 0 0 0 0 0 0 0 0 0 0 0 0 0 0 0 0 0 0 0 0 0 0 0 0 0 0 0 0 0 0 0 0 0 0 0
0 0 0 0 0 0 0 0 0 0 0 0 0 0 0 0 0 0 0 0 0 0 0 0 0 0 0 0 0 0 0 0 0 0 0 0 0 0 0 0 0 0 0 0
0 0 0 0 0 0 0 0 0 0 0 0 0 0 0 0 0 0 0 0 0 0 0 0 0 0 0 0 0 0 0 0 0 0 0 0 0 0 0 0 0 0 0 0
0 0 0 0 0 0 0 0 0 0 0 0 0 0 0 0 0 0 0 0 0 0 0 0 0 0 0 0 0 0 0 0 0 0 0 0 0 0 0 0 0 0 0 0
0 0 0 0 0 0 0 0 0 0 0 0 0 0 0 0 0 0 0 0 0 0 0 0 0 0 0 0 0 0 0 0 0 0 0 0 0 0 0 0 0 0 0 0
0 0 0 0 0 0 0 0 0 0 0 0 0 0 0 0 0 0 0 0 0 0 0 0 0 0 0 0 0 0 0 0 0 0 0 0 0 0 0 0 0 0 0 0
0 0 0 0 0 0 0 0 0 0 0 0 0 0 0 0 0 0 0 0 0 0 0 0 0 0 0 0 0 0 0 0 0 0 0 0 0 0 0 0 0 0 0 0
Wind_Speed
2 3 3 6 6 4 3 3 1 0 1 4 4 4 2 2 2 2 2 3 3 3 3 3 3 3 3 3 3 3 3 3 2 1 1 1 1 1 1 1 2 2 2 2
2 3 6 3 3 3 3 3 2 2 2 3 3 1 1 2 2 3 4 5 5 4 3 4 4 3 4 3 4 3 3 2 2 1 1 1 1 0 0 1 2 2 2 2
5 5 1 2 2 3 2 4 4 4 3 5 2 1 1 1 1 2 3 3 4 6 6 6 5 5 5 4 4 4 3 2 2 2 2 2 2 2 2 2 2 2 3 3
4 3 1 2 2 3 1 1 5 5 4 2 2 1 3 2 3 3 3 3 5 6 6 6 6 6 6 5 4 3 3 2 2 2 2 2 1 1 2 1 2 4 3 3
3 2 2 2 2 4 3 5 7 6 4 3 4 2 6 1 3 5 5 5 5 6 7 7 7 6 4 4 4 4 3 3 2 1 2 1 1 2 2 2 3 4 4 4
4 2 2 2 3 6 8 7 7 6 5 3 2 1 6 3 5 4 4 4 5 5 5 5 4 3 3 2 3 3 3 2 2 1 1 2 3 3 3 4 4 4 3 4
6 4 0 4 5 3 5 6 5 5 4 3 1 1 8 6 6 6 5 5 5 4 4 4 4 3 3 3 2 2 2 2 1 1 2 2 3 3 4 5 4 4 3 3
2 5 2 2 5 6 4 7 6 4 3 3 1 4 8 5 5 5 5 4 3 2 2 3 4 4 3 3 2 2 2 1 1 1 3 3 3 3 3 5 5 5 4 5
3 4 3 0 2 8 6 3 5 7 2 1 3 6 8 3 3 3 4 3 3 3 3 4 3 3 3 2 2 2 2 2 2 2 3 3 4 4 5 5 4 4 5 5
5 2 4 3 4 4 5 8 5 6 4 1 4 4 5 6 6 5 4 4 4 3 3 3 2 2 1 2 1 1 2 2 3 3 3 3 4 5 5 5 6 6 6 6
3 2 4 3 1 1 2 4 6 5 5 6 2 8 8 8 7 7 7 6 6 6 5 3 2 1 1 1 1 1 2 3 3 4 4 4 5 5 5 5 6 6 6 6
3 5 1 4 3 1 1 4 7 5 3 4 4 9 5 7 7 7 6 5 5 5 3 2 1 1 1 2 2 3 3 4 5 4 4 5 5 5 5 6 7 6 7 7
5 6 3 8 8 4 1 2 4 6 6 5 4 9 3 1 2 4 5 5 4 4 3 2 1 2 3 3 4 4 4 5 5 4 5 5 6 6 6 7 7 7 7 8
7 5 6 5 7 3 4 2 5 6 5 5 8 8 5 4 4 4 4 4 4 4 4 3 3 3 4 4 4 5 5 5 5 4 5 6 7 6 7 7 7 8 7 8
5 3 4 6 5 3 4 6 6 6 7 8 8 8 10 8 8 6 4 4 4 5 5 5 5 4 4 5 5 5 5 5 5 5 6 7 7 6 7 7 8 8 8 9
4 4 2 3 2 2 4 6 5 5 4 5 4 7 7 3 3 3 5 6 7 6 7 6 6 5 5 5 5 5 5 5 4 5 7 7 6 7 7 8 8 8 9 9
4 7 4 4 4 3 5 4 4 4 4 7 7 8 2 3 6 8 8 8 8 8 7 7 7 6 6 6 5 6 6 5 5 6 7 7 7 7 8 8 8 9 9 8
8 6 4 2 1 3 9 4 4 4 4 5 5 5 6 7 4 3 6 8 9 8 7 7 6 6 5 5 4 5 5 5 5 6 7 7 7 8 8 8 9 9 8 8
5 8 5 4 3 5 8 4 5 5 5 5 6 5 3 3 3 4 6 8 9 8 8 7 7 6 5 5 5 4 5 5 6 7 7 7 7 8 9 9 9 8 8 9
5 5 6 4 4 6 10 4 4 4 5 6 8 8 6 6 2 7 7 9 9 7 6 6 5 4 5 5 4 4 6 5 7 7 7 7 7 8 9 10 9 8 7 9
2 3 4 4 4 9 8 2 6 3 10 6 10 10 11 11 10 6 4 7 8 8 7 6 5 5 6 5 3 5 6 7 7 6 7 7 7 8 9 8 7 8 8 8
4 3 4 5 3 9 3 8 9 12 5 5 10 10 12 12 8 5 5 7 8 8 7 7 6 6 6 4 4 6 7 7 6 6 7 8 8 7 7 7 8 7 7 7
5 7 6 8 8 7 4 8 7 4 5 6 9 10 13 11 9 8 8 9 8 9 8 6 7 7 6 5 6 7 7 6 5 5 7 7 8 7 7 7 8 7 6 5
3 3 3 4 8 7 6 7 6 7 8 8 9 10 12 12 11 10 9 8 8 8 7 6 6 6 6 6 6 8 7 5 5 6 7 7 7 8 7 6 5 6 6 6
5 2 2 5 8 8 8 5 6 5 6 5 6 8 12 13 11 10 9 9 9 7 6 6 7 8 8 6 6 6 6 4 5 6 6 7 6 6 7 7 6 6 7 6
2 2 3 6 7 4 7 8 7 4 5 6 6 6 7 10 11 9 9 8 7 7 6 6 7 8 8 6 7 6 5 4 5 5 6 5 5 6 6 6 8 8 8 10
Wind_Direction
107 88 226 230 206 197 165 159 158 74 40 70 98 128 165 168 157 169 182 177 186 195 191 188 184 169 150 147 147 152 151 152 136 121 120 102 63 20 23 24 33 28 15 4
43 261 237 211 168 141 137 132 132 91 62 92 115 128 200 202 209 210 219 205 196 205 208 207 200 194 189 186 183 176 176 171 165 145 139 138 129 48 342 349 6 9 2 346
215 247 195 151 157 146 168 169 176 153 94 58 68 1 254 253 274 256 244 224 210 213 213 216 212 210 205 207 204 190 189 183 172 143 106 73 50 18 358 348 334 333 340 333
245 252 170 189 203 167 231 188 133 117 94 34 36 313 291 278 297 261 249 237 229 227 221 220 219 219 215 215 200 194 191 193 189 159 147 154 172 241 254 267 292 309 314 312
269 228 193 205 213 154 120 80 89 91 97 57 27 33 295 330 270 257 247 236 232 231 225 225 222 221 215 198 189 189 186 202 204 184 170 176 225 242 273 292 299 303 306 305
265 260 198 163 68 107 118 74 59 54 63 32 344 37 290 252 232 251 250 243 241 241 233 229 223 210 208 187 180 176 181 212 216 210 209 218 246 264 283 289 291 291 293 296
340 337 80 119 101 73 88 87 40 9 16 277 287 262 258 254 232 225 240 250 244 240 228 218 207 195 189 177 174 165 174 225 252 259 267 259 257 258 258 267 269 274 280 281
16 313 277 179 162 162 158 134 152 190 216 274 317 256 258 252 246 238 240 243 242 238 213 201 194 183 180 176 165 159 174 224 267 272 275 274 264 252 254 256 256 259 259 265
173 273 305 77 141 133 139 152 147 121 113 35 294 289 301 260 255 237 229 222 231 217 196 187 177 166 164 172 182 183 187 226 263 266 272 280 275 262 264 269 264 262 262 269
162 250 306 328 73 53 125 138 102 106 127 264 301 281 253 255 245 237 225 220 221 202 189 179 164 158 171 193 206 203 212 238 260 270 272 278 278 275 272 275 274 271 271 272
130 160 317 12 63 170 111 95 99 102 140 148 238 267 228 222 223 217 222 215 205 198 192 187 179 175 198 230 244 259 263 265 273 275 277 281 281 282 281 275 274 275 277 277
128 116 312 293 293 283 179 156 147 144 190 164 176 264 259 234 232 215 220 211 195 188 180 178 186 203 248 268 277 275 273 270 270 273 280 279 281 286 284 280 278 277 277 277
134 103 43 349 343 349 9 135 130 121 115 149 175 262 297 263 211 209 206 197 182 177 174 180 214 246 262 273 278 279 277 273 275 279 284 287 287 285 282 281 281 280 278 279
115 110 153 196 229 253 288 214 150 133 147 193 221 248 282 243 219 214 203 191 180 187 192 206 235 253 265 273 275 277 280 277 279 282 284 283 282 280 280 282 282 280 278 278
111 162 214 236 247 243 254 252 188 190 192 190 229 229 246 230 216 215 199 180 180 197 212 222 232 248 264 275 279 276 278 281 281 283 282 278 281 283 284 284 284 284 282 281
123 170 186 279 270 265 266 264 216 209 197 210 236 255 249 230 165 185 191 185 198 215 226 233 238 246 254 261 269 275 275 279 283 279 279 283 287 288 286 286 287 287 286 285
151 145 145 255 303 1 289 253 207 213 204 180 206 238 204 178 200 210 204 197 207 219 227 231 235 237 244 251 254 260 267 280 283 278 281 285 286 287 287 290 292 289 287 285
146 138 145 175 69 240 249 256 206 204 227 208 224 233 201 206 213 223 200 198 213 221 224 230 231 235 242 245 250 259 269 276 278 281 283 285 286 287 290 291 289 287 285 285
142 135 127 137 182 271 292 245 173 173 253 214 208 215 181 97 51 304 224 203 210 213 214 219 220 221 233 245 250 259 273 277 279 279 280 282 284 288 292 293 291 289 289 290
81 106 120 138 161 226 249 243 157 111 279 228 190 191 162 124 153 258 232 203 215 218 215 216 216 217 235 246 238 247 265 274 273 273 276 280 282 283 287 287 287 288 287 287
51 77 136 163 201 254 250 176 125 161 243 219 189 186 168 182 202 223 206 196 204 208 213 210 207 217 232 235 221 242 259 263 263 272 278 282 283 282 282 282 284 289 291 292
196 172 182 146 182 258 227 145 180 215 226 196 192 187 187 209 224 229 213 207 204 207 212 204 206 228 237 226 217 243 256 258 267 274 279 284 287 287 289 288 292 292 291 295
198 193 188 188 215 241 224 214 229 202 212 211 197 197 195 206 221 219 215 212 210 209 210 202 205 228 243 231 215 236 252 261 272 277 281 287 293 291 286 286 293 298 295 293
270 163 162 254 272 268 261 252 249 216 221 224 204 194 186 201 213 212 212 211 212 213 210 202 201 222 241 239 228 234 252 263 266 275 284 291 296 300 300 293 286 289 292 295
247 200 204 264 281 309 312 289 271 253 245 244 223 201 199 203 210 206 208 210 209 208 205 195 202 219 235 241 244 246 249 250 260 274 284 291 290 292 300 300 287 281 273 264
295 225 211 243 254 238 278 308 328 298 263 242 222 222 216 206 212 205 209 207 200 201 199 204 213 222 235 240 248 253 247 236 250 274 285 288 293 296 298 303 307 288 274 280